Regional Weather Roundup
Issued by NWS Wakefield, VA

Home | Current Version | Previous Version | Text Only | Print | Product List | Glossary Off
Versions: 1 2 3 4 5 6 7 8 9 10 11 12 13 14 15 16 17 18 19 20 21 22 23 24 25 26 27 28 29 30 31 32 33 34 35 36 37 38 39 40 41 42 43 44 45 46 47 48 49 50

676
ASUS41 KAKQ 280915
RWRAKQ

REGIONAL WEATHER ROUNDUP
NATIONAL WEATHER SERVICE WAKEFIELD VA
500 AM EDT THU JUL 28 2016

Note: "fair" indicates few or no clouds below 12,000 feet with no
significant weather and/or obstructions to visibility. * = Denotes
station may not report precipitation (e.g., rain,snow,etc.),
thunder or fog.

VAZ042-051-052>054-056-281000-
NORTHERN VIRGINIA

CITY           SKY/WX    TMP DP  RH WIND       PRES   REMARKS
WASH NATIONAL  CLOUDY    82  73  74 CALM      29.90S
DULLES         MOCLDY    75  70  84 SW3       29.91S
FORT BELVOIR   FAIR      75  73  93 N1        29.89F
QUANTICO       FAIR      79  74  84 CALM      29.90F
FREDERICKSBRG* FAIR      75  75 100 CALM      29.89F
STAFFORD*      FAIR      73  71  95 CALM      29.94F FOG
WARRENTON      FAIR      74  69  85 CALM      29.90S HAZE
CULPEPER*      FAIR      74  74 100 CALM      29.91F FOG
MANASSAS*      FAIR      75  73  94 CALM      29.90F
LEESBURG*      FAIR      77  73  88 SW7       29.92S
WINCHESTER     FAIR      73  72  94 CALM      29.92F
FRONT ROYAL*   FAIR      72  72 100 S5        29.92F
LURAY*         FAIR     N/A N/A N/A CALM      29.95F HAZE
$$

VAZ048-049-060>072-079>083-281000-
CENTRAL AND SOUTH CENTRAL VIRGINIA

CITY           SKY/WX    TMP DP  RH WIND       PRES   REMARKS
RICHMOND       FAIR      75  73  93 CALM      29.91S
CHESTERFIELD*  FAIR      73  63  68 CALM      29.93S
PETERSBURG*    FAIR     N/A N/A N/A CALM      29.93R
HANOVER        FAIR      74  71  91 CALM      29.92F
TAPPAHANNOCK*  FAIR      73  73 100 CALM      29.92S
QUINTON*       FAIR      74  74  99 CALM      29.90F
CHARLOTTSVILLE FAIR      74  72  93 CALM      29.92S
GORDONSVILLE*  FAIR      72  72 100 CALM      29.91S
ORANGE*          N/A     73  73 100 CALM      29.93S
LOUISA*        FAIR      75  73  94 CALM      29.90F
BUMPASS*       FAIR      72  72 100 CALM      29.90F
FARMVILLE*     FAIR     N/A N/A N/A CALM      29.92S HAZE
CREWE*         NOT AVBL
FORT PICKETT*  PTSUNNY   74  74  98 W12       29.94R
CHASE CITY*    FAIR      73  71  95 CALM      29.94S
CLARKSVILLE*   FAIR      73  73 100 CALM      29.94R
SOUTH HILL*    FAIR      73  73 100 CALM      29.99S
LAWRENCEVILLE* FAIR      73  73 100 CALM      29.93S
EMPORIA*         N/A     72  72 100 CALM      29.93S
$$

VAZ088>098-281000-
SOUTHEAST VIRGINIA

CITY           SKY/WX    TMP DP  RH WIND       PRES   REMARKS
NORFOLK        FAIR      82  79  90 W3        29.89S
VIRGINIA BEACH MOCLDY    85  77  77 SW5       29.88F HX  95
NORFOLK NAVAL  FAIR      81  76  84 W3        29.91S
WEST POINT*    FAIR      74  73  97 CALM      29.92S
SALUDA*        FAIR      74  74 100 CALM      29.90S
NEWPORT NEWS   FAIR      78  75  90 W3        29.90F
LANGLEY AFB    FAIR      78  77  96 W5        29.89F
FORT EUSTIS    FAIR      79  76  93 W2        29.88F
WILLIAMSBURG*    N/A    N/A N/A N/A MISG      29.90F
HR EXEC AP*    FAIR      75  73  94 CALM      29.92S
FRANKLIN*      MOCLDY    76  75  98 CALM      29.91S FOG
US460-WAKEFLD  FAIR      76  74  93 CALM      29.91S FOG
$$

VAZ020-022-025-037-045-281000-
WEST CENTRAL AND SOUTHWEST VIRGINIA

CITY           SKY/WX    TMP DP  RH WIND       PRES   REMARKS
STAUNTON*      FAIR      69  69  99 CALM      29.98S FOG
WAYNESBORO*    FAIR      70  69  96 CALM      29.98S
HOT SPRINGS VA FAIR      70  64  83 W9        30.11S
LYNCHBURG      MOCLDY    72  72 100 CALM      29.96S
DANVILLE       FAIR      71  70  96 CALM      29.95S
SOUTH BOSTON*    N/A    N/A N/A N/A CALM      29.94S VSB 1
MARTINSVILLE   FAIR      69  69  98 CALM      29.99S FOG
ROANOKE        CLOUDY    76  73  91 N3        30.00R
BLACKSBURG     FAIR      72  71  99 CALM      30.06F
DUBLIN*        LGT RAIN  73  73 100 SW3       30.05F
MARION*        FAIR      71  69  95 CALM      30.09R
HILLSVILLE*    FAIR      69  69 100 S3        30.06S FOG
RICHLANDS*     PTSUNNY   67  67 100 CALM      30.05S FOG
WISE*            N/A     66  64  94 CALM      30.07S
ABINGDON*      CLOUDY    73  73  99 CALM      30.04S FOG
$$

MDZ021>025-VAZ099-100-281000-
SOUTHERN MARYLAND AND THE DELMARVA PENINSULA

CITY           SKY/WX    TMP DP  RH WIND       PRES   REMARKS
PATUXENT RIVER CLOUDY    77  74  90 SW6       29.89F
BAY BRIDGE APT CLOUDY    79  77  94 CALM      29.89
LEONARDTOWN    PTCLDY    75  73  94 CALM      29.91
DOVER          MOCLDY    78  78 100 S3        29.89S
GEORGETOWN     MOCLDY    78  76  93 CALM      29.91S FOG
EASTON         CLOUDY    79  78  98 CALM      29.93F
CAMBRIDGE      CLEAR     73  73 100 CALM      29.89F
SALISBURY      PTCLDY    76  75  97 CALM      29.90F FOG
OCEAN CITY     CLEAR    N/A N/A N/A CALM      29.90F
WALLOPS ISLAND MOCLDY    79  77  94 CALM      29.90F FOG
ACCOMACK*        N/A     77  75  94 CALM      29.89F FOG
$$

NCZ012>017-030>032-281000-
NORTH CENTRAL AND EASTERN NORTH CAROLINA

CITY           SKY/WX    TMP DP  RH WIND       PRES   REMARKS
ROANOKE RAPIDS FAIR      72  72 100 CALM      29.92S FOG
RALEIGH        PTCLDY    74  72  93 CALM      29.92F
ELIZABETH CITY CLEAR     79  74  84 SW8       29.90S
AHOSKIE*       CLEAR     74  74  98 CALM      29.91S FOG
EDENTON*       CLEAR     81  73  77 W3        29.91F
CURRITUCK*     CLEAR     80  75  86 SW6       29.90F
KILL DEVIL HLS PTCLDY    83  77  81 W5        29.89F
MANTEO           N/A     81  77  88 NW5       29.91F
CAPE HATTERAS  MOCLDY    82  77  84 W3        29.93S
TARBORO*       FAIR      76  75  95 CALM      29.91F
GOLDSBORO      CLEAR     79  79 100 SW5       29.90F
WASHINGTON     CLEAR     76  74  91 SW3       29.91F
GREENVILLE     CLEAR     79  77  94 SW6       29.93S
NEW BERN       CLEAR     77  74  90 SW6       29.93F
WILMINGTON     CLEAR     81  78  91 SW9       29.94S
$$

VAZ048-281000-
ELSEWHERE

CITY           SKY/WX    TMP DP  RH WIND       PRES   REMARKS
HARRISBURG PA  PTCLDY    73  68  84 NE3       29.90S
BALTIMORE      CLOUDY    77  72  84 CALM      29.89S
ANNAPOLIS      CLOUDY    80  76  87 CALM      29.88F
ANDREWS AFB    FAIR      78  74  89 CALM      29.90S
PHILADELPHIA   PTCLDY    76  72  87 CALM      29.91S
GREENSBORO     PTCLDY    74  73  97 NW3       29.95S
ROCKY MOUNT    CLEAR     76  76 100 NE3       29.91F FOG
$$

VAZ100-281000-
MARINE

STATION/POSITION TIME  TEMP    WIND        PRES    WAVE   SWELL
                       AIR SEA DIR/SP/G            HT/PER HT/PER
                 (UTC) (F)     (DEG/KT/KT) (MB)    (FT/S) (FT/S)
CAPE MAY NJ      0800   77 73  220/  3/  4 1012.1F
LEWES DE         0800   79 74  230/  4/  5 1012.5S
OCEAN-CITY-INLET 0800   77 71  250/  1/  1 1013.0F
WACHAPREAGUE VA  0800   79 84  320/  1/  3 1012.5F
THOMAS POINT MD  0900   82 85  340/  4/  5 1013.5F
GOOSES REEF MD   0900   83 85  190/  6/  6 1013.1F   0
COVE POINT MD    0800   80     190/  3/  5 1013.1R
SOLOMONS ISLAND  0800   80 86  210/  4/  5   N/A
BISHOPS HEAD MD  0800   84     220/  7/  8 1012.8F
PINEY POINT MD   0800          270/  5/  6   N/A
POTOMAC MD       0900   81 86  260/  6/  8 1011.2F   0
CAMBRIDGE MD     0800   81 88   CALM  /  1 1011.6F
LEWISETTA VA     0800   79 87  260/  3/  4 1012.2F
RAPPAHANNOCK LGT 0800          200/  5/  5 1013.0F
STINGRAY PT      0900   83 87  240/  6/  8 1012.7F   1
YORK RVR RNG VA  0800   82     330/  6/  6 1012.0F
YORKTOWN VA      0800   80 84  280/  5/  5 1012.1F
JAMESTOWN VA     0900   80 89  300/  4/  6   N/A
DOMINION TERM VA 0800   82     280/  5/  6 1012.5F
KIPTOPEKE VA     0800      81   90/  1/  2   N/A
CHES BAY BRIDGE  0800   82 78  180/  3/  4 1012.1F
CAPE HENRY VA    0800   80     210/  2/  3   N/A
WILLOUBY STN VA  0800   82     250/  6/  8   N/A
CAPE HENRY BUOY  0812      74                N/A     1/ 9
1ST LANDING BUOY 0900   81 81  290/  2/  2 1011.9S   1/ 4
CAPE CHARLES BUO 0826      78                N/A     1/ 7
OFFSHORE WE BUOY 0821      82                N/A     2/ 6
64NM E OF VA BCH 0850   81 82  250/  8/  8 1012.1S   2/ 6   2/ 6
DUCK PIER NC     0800   83 69  280/ 11/ 15 1012.0F
44100 DUCK FRF   0805      77                N/A     1/ 8
44056 DUCK FRF   0811      73                N/A     1/ 8
OREGON INLET NC  0800   81 83  290/  6/  9 1012.6F
HATTERAS NC      0800   82 83  260/  5/  6 1013.0R
DIAMOND SHLS NC  0850   84 84  280/  4/  6 1013.7R   3/ 6   3/ 6
CAPE LOOKOUT NC  0900   82     240/  6/  8 1013.3F
$$




USA.gov is the U.S. government's official web portal to all federal, state and local government web resources and services.